sat.trackr.live / text

‹ back to catalog

STARLINK-30888

NORAD 58370 · 2023-177V

PAYLOAD ACTIVE UNKNOWN

§ Identity

Operator
Country
US
Launch date
2023-11-18
Launch site
AFETR
Launch vehicle
Mass (kg)
RCS (m²)

Purposes: comms

External: N2YO · Heavens-Above · Gunter

§ Orbital elements

Epoch: 2026-09-20T21:18:38.369376Z

Period
94.26 min
Inclination
43.0036°
Eccentricity
0.0001468
Mean motion
15.27612937 rev/d
Perigee alt
481.9 km
Apogee alt
484.0 km
Semi-major
6,861.1 km
B*
-3.3955e-4
RAAN
327.9458°
Arg perigee
279.1480°
Mean anomaly
80.9205°
Rev number
15,809

§ Raw data

STARLINK-308881 58370U 23177V   26263.88794409 -.00009603  00000+0 -33955-3 0  99982 58370  43.0036 327.9458 0001468 279.1480  80.9205 15.27612937158099

JSON: /api/v1/satellites/58370 · /tle

For live sub-satellite position, see the globe view (requires WebGL).

§ Visibility from observer

Set your observer location to see the next 7 days of passes ≥ 10°. The values pass through the URL so the page stays shareable.

No JS? Fill the form by hand. The geolocation button needs JavaScript.